[[[{"header":{"parameterUnit":"kt","parameterCategory":2,"dx":1,"dy":1,"la1":30.253999710083008,"la2":30.299108505249023,"lo1":-89.0895004272461,"lo2":-89.04439544677734,"nx":28,"ny":28,"refTime":"2022-10-19T21:00:00:Z","depth":"0","parameterNumber":2,"parameterNumberName":"U-component_of_CURRENTS"},"data":[0.3689,0.3599,0.3601,0.3482,0.3472,0.3433,0.3465,0.3575,0.3799,0.4157,0.4541,0.4914,0.5651,0.6357,0.6708,0.6763,0.6307,0.6089,0.5902,0.6555,0.6587,0.6618,0.6504,0.6302,0.6301,0.4896,0.4886,0.4877,0.3803,0.3789,0.3757,0.372,0.3686,0.3764,0.3856,0.3891,0.4026,0.4374,0.4648,0.5373,0.5975,0.6676,0.7353,0.7316,0.7149,0.7143,0.6594,0.6526,0.7407,0.7325,0.7294,0.7294,0.7294,0.7295,0.7295,0.7295,0.4008,0.3957,0.3946,0.3926,0.394,0.3956,0.3963,0.4124,0.426,0.4551,0.4879,0.5293,0.606,0.7018,0.7347,0.773,0.7506,0.7615,0.7512,0.7144,0.6932,0.7729,0.7973,0.7973,0.7973,0.7974,0.7974,0,0.416,0.4163,0.4154,0.4134,0.4146,0.4172,0.4266,0.4316,0.4587,0.4774,0.508,0.5366,0.6146,0.6667,0.7318,0.7667,0.7491,0.7893,0.761,0.7401,0.6845,0.6776,0.7667,0.7868,0.7868,0.7868,0.7868,0.7868,0.4337,0.4301,0.4335,0.4325,0.4354,0.4378,0.4427,0.4624,0.4729,0.5095,0.5197,0.5666,0.6018,0.6749,0.7255,0.7738,0.7523,0.788,0.7836,0.7445,0.7379,0.6978,0.6858,0.7864,0.7865,0.7865,0.7865,0,0.4428,0.4485,0.4452,0.4538,0.4563,0.4552,0.4693,0.4756,0.4959,0.5144,0.5226,0.5666,0.6127,0.6561,0.7104,0.7287,0.7484,0.7774,0.761,0.7682,0.7488,0.7362,0.7053,0.6919,0.7909,0.791,0.7911,0,0.4599,0.4575,0.4662,0.4651,0.4644,0.4783,0.4825,0.4964,0.5171,0.5305,0.5592,0.5776,0.6245,0.6588,0.6879,0.7286,0.7361,0.7509,0.7605,0.7557,0.7548,0.7392,0.7267,0.7657,0.7656,0.7655,0.7654,0,0.4718,0.4767,0.475,0.4781,0.4909,0.4933,0.5017,0.5229,0.5323,0.5567,0.5675,0.5995,0.6188,0.6501,0.6891,0.6873,0.7344,0.7391,0.7537,0.7534,0.7604,0.76,0.7455,0.7652,0.7652,0.7651,0.7651,0,0.4879,0.4904,0.4889,0.4983,0.5002,0.5035,0.5189,0.5277,0.5522,0.5638,0.5846,0.604,0.6297,0.6374,0.681,0.6734,0.6939,0.7123,0.7138,0.7172,0.7257,0.7314,0.7433,0.7158,0.7284,0.7281,0.7278,0,0.4986,0.4983,0.5078,0.5088,0.5104,0.526,0.5337,0.5479,0.5626,0.5759,0.599,0.6161,0.627,0.6372,0.6543,0.6831,0.6947,0.682,0.7217,0.7225,0.7159,0.7269,0.7239,0.7385,0.7241,0.7244,0.7247,0,0.5077,0.5181,0.5179,0.5198,0.5335,0.5364,0.5462,0.5589,0.5654,0.5813,0.5917,0.6184,0.6288,0.6413,0.658,0.673,0.6882,0.683,0.6843,0.683,0.7231,0.7216,0.7239,0.7044,0.7048,0.7052,0.7217,0,0.5235,0.5257,0.5253,0.5332,0.5384,0.5405,0.5548,0.5608,0.5702,0.5808,0.6,0.6202,0.6403,0.6493,0.6592,0.6778,0.6797,0.6901,0.6892,0.6961,0.7023,0.7046,0.6801,0.6803,0.6804,0.6806,0,0,0.5306,0.5332,0.5425,0.5437,0.5483,0.5604,0.561,0.5686,0.5824,0.589,0.5915,0.626,0.6399,0.6611,0.6645,0.6742,0.6829,0.6697,0.693,0.6943,0.6956,0.7017,0.7038,0.6808,0.6809,0.6809,0.681,0,0.5374,0.5435,0.5427,0.5481,0.5566,0.5639,0.5643,0.5744,0.5788,0.5905,0.6044,0.6194,0.64,0.6542,0.6647,0.6748,0.6826,0.6813,0.674,0.6937,0.6947,0.6958,0.702,0.7037,0.6813,0.6813,0.6813,0,0.5456,0.5524,0.5537,0.5619,0.567,0.5707,0.5765,0.5795,0.5837,0.5977,0.6061,0.6205,0.6396,0.6539,0.661,0.661,0.6821,0.6758,0.6756,0.6709,0.6912,0.6925,0.6937,0.6779,0.6778,0.6777,0,0,0.5501,0.5525,0.5637,0.5644,0.5673,0.5759,0.5783,0.5822,0.592,0.5946,0.6054,0.6203,0.6357,0.6428,0.6562,0.6685,0.6756,0.6744,0.6746,0.6746,0.67,0.6902,0.6915,0.6773,0.6773,0.6773,0,0,0.5521,0.5641,0.5684,0.57,0.576,0.5855,0.5847,0.589,0.5967,0.5981,0.6111,0.6148,0.6287,0.6376,0.6308,0.6553,0.6561,0.6577,0.6457,0.6461,0.6463,0.6367,0.635,0,0,0,0,0,0.5653,0.5636,0.5674,0.5694,0.5795,0.5849,0.586,0.5905,0.5924,0.5901,0.6032,0.6066,0.6383,0.6324,0.6358,0.6395,0.6719,0.6729,0.6738,0.6615,0.6618,0.6621,0,0,0,0,0,0,0.5661,0.5683,0.5676,0.5774,0.58,0.5849,0.5894,0.5905,0.5925,0.5925,0.6046,0.6071,0.6157,0.6312,0.6341,0.6375,0.6341,0.6723,0.6731,0.6738,0.6616,0.6619,0.6621,0,0,0,0,0,0.5668,0.5686,0.5832,0.5774,0.5796,0.5869,0.5892,0.5902,0.5897,0.605,0.6071,0.5928,0.6155,0.6188,0.633,0.6359,0.6321,0.6331,0.6728,0.6734,0.674,0.6618,0,0,0,0,0,0,0.5674,0.5678,0.5837,0.5847,0.5767,0.5864,0.5877,0.5898,0.6022,0.6042,0.5944,0.5944,0.6155,0.618,0.6204,0.6349,0.6304,0.6315,0.6322,0.6733,0.6738,0.6742,0,0,0,0,0,0,0.5671,0.5685,0.5841,0.583,0.5837,0.5859,0.5871,0.5987,0.6026,0.5906,0.5911,0.5943,0.6161,0.6175,0.6194,0.6369,0.6292,0.6302,0.631,0.6314,0.6737,0.6741,0,0,0,0,0,0,0.5678,0.569,0.5826,0.5832,0.5839,0.5938,0.5966,0.6084,0.5957,0.5902,0.5956,0.5955,0.6158,0.6176,0.6186,0.6353,0.6365,0.6292,0.6299,0.6304,0.6308,0,0,0,0,0,0,0,0.5684,0.5585,0.5796,0.5835,0.584,0.5937,0.5938,0.5939,0.5957,0.5956,0.5956,0.5955,0.6232,0.6243,0.6255,0.634,0,0,0.6291,0.6296,0,0,0,0,0,0,0,0,0.5582,0.5584,0.5796,0.5799,0.5802,0.5937,0.5938,0.5939,0.5957,0.5956,0.5956,0.5955,0.6235,0.6244,0.6254,0,0,0,0,0,0,0,0,0,0,0,0,0,0,0,0.5797,0.5799,0,0.5937,0.5938,0.5939,0.5957,0.5956,0.5956,0.5956,0.6238,0.6245,0.6253,0,0,0,0,0,0,0,0,0,0,0,0,0,0,0,0,0,0,0,0,0,0,0,0,0,0,0,0,0,0,0,0,0,0,0,0,0,0,0,0,0,0,0,0,0,0,0,0,0,0,0,0,0,0,0,0,0,0,0,0,0,0,0,0,0,0,0,0,0]}],[{"header":{"parameterUnit":"kt","parameterCategory":2,"dx":1,"dy":1,"la1":30.253999710083008,"la2":30.299108505249023,"lo1":-89.0895004272461,"lo2":-89.04439544677734,"nx":28,"ny":28,"refTime":"2022-10-19T21:00:00:Z","depth":"0","parameterNumber":3,"parameterNumberName":"V-component_of_CURRENTS"},"data":[0.2475,0.2592,0.2698,0.2984,0.3158,0.3381,0.3514,0.374,0.3963,0.4284,0.4438,0.4626,0.4036,0.1863,0.0335,-0.0009,-0.0466,-0.0551,-0.0827,-0.028,-0.0213,-0.015,-0.0176,-0.0795,-0.0797,-0.148,-0.1487,-0.1493,0.2486,0.2593,0.277,0.3002,0.319,0.3312,0.3562,0.3696,0.3898,0.4143,0.4266,0.4135,0.3354,0.2607,0.1425,0.0699,0.0527,0.0327,0.0272,0.0197,0.0967,0.098,0.0596,0.0596,0.0597,0.0597,0.0597,0.0598,0.2538,0.2601,0.2748,0.2949,0.3143,0.3349,0.348,0.3673,0.3854,0.4051,0.4075,0.4159,0.3621,0.2853,0.2336,0.1413,0.1486,0.1125,0.1,0.0961,0.082,0.1717,0.1419,0.1419,0.1418,0.1418,0.1418,0,0.2581,0.2639,0.2746,0.2949,0.3111,0.3299,0.3483,0.3573,0.377,0.3877,0.398,0.3993,0.3603,0.3205,0.2583,0.2269,0.1709,0.1846,0.1484,0.137,0.13,0.1117,0.2085,0.1875,0.1877,0.1879,0.188,0.1881,0.2613,0.2665,0.2867,0.2975,0.3072,0.3235,0.3364,0.3529,0.3644,0.3796,0.3832,0.3736,0.3729,0.3213,0.2757,0.2311,0.2052,0.1922,0.1931,0.1598,0.1404,0.1344,0.124,0.1906,0.1903,0.19,0.1898,0,0.2629,0.2736,0.2868,0.3053,0.3121,0.3214,0.3452,0.3543,0.3633,0.3745,0.3752,0.3741,0.358,0.332,0.2994,0.2706,0.2206,0.2244,0.2337,0.2266,0.1658,0.1539,0.1097,0.0936,0.1869,0.1864,0.1861,0,0.2697,0.2783,0.2942,0.3007,0.3143,0.3285,0.3422,0.351,0.3604,0.3693,0.3668,0.3676,0.345,0.328,0.3067,0.2718,0.2765,0.2446,0.2361,0.2425,0.2419,0.2021,0.1889,0.2521,0.2523,0.2525,0.2527,0,0.2676,0.2862,0.2973,0.3046,0.3239,0.3315,0.3414,0.3518,0.3589,0.3618,0.3641,0.3537,0.3478,0.3267,0.3069,0.307,0.2785,0.2751,0.245,0.2439,0.2359,0.2344,0.1963,0.2529,0.253,0.253,0.2531,0,0.2735,0.2822,0.2968,0.3145,0.3196,0.3285,0.3431,0.3508,0.3545,0.3558,0.3526,0.3457,0.3413,0.3327,0.3114,0.317,0.2995,0.2878,0.2864,0.2669,0.2586,0.2431,0.2404,0.2058,0.268,0.2682,0.2684,0,0.2696,0.283,0.292,0.3067,0.3155,0.3242,0.3328,0.3387,0.3417,0.3428,0.3365,0.3357,0.3303,0.3282,0.3219,0.3108,0.3013,0.3121,0.2749,0.2739,0.2634,0.2626,0.2666,0.2446,0.2711,0.2708,0.2706,0,0.2654,0.2813,0.2825,0.2904,0.3041,0.3083,0.3192,0.3256,0.3291,0.3271,0.3285,0.3301,0.323,0.3213,0.3163,0.3104,0.3052,0.3009,0.2999,0.2919,0.2799,0.2678,0.2647,0.2974,0.2972,0.2971,0.2728,0,0.271,0.2767,0.2803,0.2914,0.2966,0.3021,0.3082,0.3105,0.3107,0.3102,0.3102,0.3069,0.304,0.3049,0.3038,0.3029,0.2943,0.2894,0.2826,0.2877,0.2762,0.2746,0.2889,0.2885,0.2883,0.288,0,0,0.2649,0.2714,0.273,0.2801,0.2857,0.2846,0.292,0.2927,0.2929,0.2937,0.2908,0.2881,0.2873,0.2894,0.2943,0.2919,0.2814,0.2894,0.2863,0.2862,0.2861,0.2755,0.2742,0.2875,0.2874,0.2873,0.2872,0,0.2667,0.2693,0.2728,0.2766,0.281,0.2827,0.2831,0.2845,0.2839,0.2873,0.2832,0.2829,0.2812,0.2812,0.2804,0.2879,0.2748,0.2856,0.2943,0.2843,0.2846,0.2848,0.2746,0.2736,0.2866,0.2866,0.2866,0,0.2663,0.2693,0.2703,0.2738,0.2755,0.2812,0.2745,0.2757,0.2794,0.2709,0.2751,0.2715,0.2674,0.2711,0.2711,0.2677,0.267,0.2707,0.2719,0.2709,0.26,0.2605,0.2609,0.2553,0.2553,0.2552,0,0,0.2677,0.2701,0.273,0.2744,0.2768,0.2755,0.2748,0.2734,0.2725,0.2709,0.2687,0.2664,0.266,0.2654,0.2639,0.2661,0.2566,0.2677,0.2691,0.2704,0.2701,0.2597,0.2602,0.2551,0.2551,0.2551,0,0,0.2671,0.2716,0.2724,0.2746,0.2752,0.2745,0.2746,0.2714,0.2689,0.2694,0.2644,0.2636,0.2652,0.2605,0.2598,0.2628,0.2556,0.2557,0.269,0.2707,0.2721,0.2728,0.2541,0,0,0,0,0,0.271,0.2722,0.2731,0.2738,0.2751,0.2757,0.2752,0.2719,0.2692,0.2678,0.2664,0.262,0.2599,0.2592,0.2585,0.263,0.2537,0.254,0.2542,0.2715,0.2734,0.275,0,0,0,0,0,0,0.2713,0.2724,0.273,0.2733,0.2735,0.2756,0.2725,0.2715,0.2692,0.2683,0.2628,0.2619,0.2596,0.2592,0.2586,0.2631,0.2543,0.2538,0.254,0.2542,0.2722,0.2737,0.275,0,0,0,0,0,0.2716,0.2724,0.2761,0.273,0.2732,0.2701,0.2723,0.2714,0.2679,0.2655,0.2643,0.2654,0.2598,0.2589,0.2588,0.2636,0.2547,0.2545,0.2539,0.2541,0.2543,0.2729,0,0,0,0,0,0,0.2717,0.2695,0.276,0.2758,0.2718,0.2697,0.2694,0.2714,0.2649,0.264,0.2682,0.2676,0.2599,0.2592,0.2586,0.2641,0.2549,0.2548,0.2546,0.2541,0.2542,0.2543,0,0,0,0,0,0,0.2691,0.2694,0.2758,0.2745,0.2741,0.2693,0.2691,0.2678,0.2648,0.2676,0.2672,0.268,0.2608,0.2595,0.259,0.2569,0.2552,0.255,0.2549,0.2548,0.2542,0.2543,0,0,0,0,0,0,0.2691,0.2693,0.2745,0.2742,0.2738,0.2709,0.2677,0.2687,0.2657,0.2678,0.2652,0.265,0.2612,0.2605,0.2592,0.2574,0.257,0.2552,0.255,0.2549,0.2549,0,0,0,0,0,0,0,0.2691,0.2691,0.278,0.2739,0.2735,0.2744,0.2742,0.2741,0.2656,0.2654,0.2653,0.2651,0.2562,0.256,0.2558,0.2579,0,0,0.2552,0.2551,0,0,0,0,0,0,0,0,0.2688,0.269,0.278,0.2781,0.2781,0.2744,0.2743,0.2741,0.2656,0.2654,0.2653,0.2652,0.2562,0.256,0.2558,0,0,0,0,0,0,0,0,0,0,0,0,0,0,0,0.278,0.2781,0,0.2744,0.2743,0.2742,0.2656,0.2654,0.2653,0.2652,0.2561,0.256,0.2559,0,0,0,0,0,0,0,0,0,0,0,0,0,0,0,0,0,0,0,0,0,0,0,0,0,0,0,0,0,0,0,0,0,0,0,0,0,0,0,0,0,0,0,0,0,0,0,0,0,0,0,0,0,0,0,0,0,0,0,0,0,0,0,0,0,0,0,0,0]}]],[[{"header":{"parameterUnit":"kt","parameterCategory":2,"dx":1,"dy":1,"la1":30.253999710083008,"la2":30.299108505249023,"lo1":-89.0895004272461,"lo2":-89.04439544677734,"nx":28,"ny":28,"refTime":"2022-10-19T21:00:00:Z","depth":"2","parameterNumber":2,"parameterNumberName":"U-component_of_CURRENTS"},"data":[0.1869,0.187,0.1865,0.1875,0.1926,0.1964,0.1999,0.2001,0.1974,0.1889,0.1799,0.1856,0.1907,0.1512,0.1481,0.1429,0.1575,0.1335,0.227,0.1843,0.189,0.2007,0.177,0,0,0,0,0,0.1871,0.1897,0.1916,0.1968,0.1983,0.2071,0.2142,0.2142,0.2247,0.2301,0.2467,0.2137,0.2121,0.2231,0.2053,0.2116,0.1909,0.2081,0.1698,0.1746,0.1791,0.1611,0.1306,0.1307,0.1307,0.1307,0,0,0.1894,0.1901,0.1959,0.2013,0.2074,0.2126,0.2156,0.2265,0.2379,0.2524,0.2741,0.2833,0.276,0.2795,0.2843,0.281,0.2968,0.2701,0.2704,0.2718,0.2595,0.2577,0.2545,0.2552,0.2558,0.2563,0.2568,0,0.1919,0.1962,0.1989,0.2059,0.2127,0.218,0.2292,0.2328,0.2504,0.2637,0.2857,0.302,0.3264,0.317,0.3351,0.3284,0.3114,0.3064,0.3695,0.2361,0.2329,0.2321,0.2338,0.227,0.2276,0.228,0.2283,0.2285,0.1977,0.1986,0.2072,0.2104,0.2153,0.2244,0.231,0.2443,0.2504,0.2749,0.2801,0.3063,0.3241,0.352,0.3456,0.3565,0.3656,0.3175,0.2923,0.3459,0.3459,0.3442,0.3426,0.2345,0.2338,0.2331,0.2326,0,0.2008,0.2055,0.2081,0.2169,0.2208,0.226,0.2387,0.2438,0.2587,0.2699,0.2751,0.2932,0.3154,0.3255,0.3355,0.3341,0.3425,0.3465,0.295,0.2907,0.341,0.3399,0.3576,0.3581,0.3585,0.3588,0.3591,0,0.2067,0.2086,0.2164,0.2174,0.2229,0.2302,0.2381,0.2455,0.2568,0.2649,0.276,0.2854,0.2921,0.3044,0.3081,0.3236,0.3214,0.3198,0.3218,0.2722,0.2691,0.3,0.2988,0.3091,0.3089,0.3088,0.3086,0,0.2122,0.2148,0.2172,0.2188,0.2255,0.2301,0.2358,0.2455,0.2508,0.2635,0.2718,0.2794,0.2879,0.2919,0.3024,0.2965,0.3149,0.3045,0.3153,0.3162,0.2698,0.2665,0.3084,0.3084,0.3084,0.3083,0.3083,0,0.2171,0.2186,0.2197,0.2262,0.2276,0.2297,0.2392,0.2426,0.2523,0.2597,0.268,0.2726,0.2792,0.2778,0.2883,0.2862,0.2901,0.2911,0.2918,0.2968,0.2955,0.2647,0.2629,0.3016,0.3014,0.3012,0.3011,0,0.2237,0.2228,0.2257,0.2267,0.2278,0.2349,0.2374,0.2432,0.2504,0.2575,0.2614,0.2665,0.268,0.2731,0.2749,0.278,0.2819,0.2746,0.2846,0.285,0.2947,0.3028,0.2484,0.2621,0.2992,0.2994,0.2995,0,0.2281,0.2313,0.232,0.2345,0.239,0.2396,0.2419,0.2466,0.2517,0.2572,0.2641,0.2622,0.2695,0.2676,0.2683,0.2692,0.2791,0.2717,0.2716,0.2832,0.2908,0.2993,0.3015,0.2777,0.2778,0.2778,0.298,0,0.2363,0.2377,0.2365,0.2384,0.2403,0.2412,0.2455,0.249,0.2565,0.2607,0.2651,0.264,0.2662,0.2649,0.2643,0.2661,0.2708,0.2659,0.2657,0.2674,0.2761,0.2774,0.2608,0.2606,0.2605,0.2604,0,0,0.2433,0.242,0.2451,0.2443,0.2468,0.2533,0.2533,0.2548,0.2589,0.2624,0.2659,0.2664,0.2637,0.2617,0.2631,0.2598,0.265,0.263,0.265,0.2656,0.2661,0.2745,0.2758,0.2602,0.2602,0.2601,0.2601,0,0.2448,0.2476,0.2458,0.2474,0.2517,0.2534,0.2553,0.2593,0.2631,0.2642,0.2661,0.2674,0.2644,0.2625,0.2606,0.2588,0.2626,0.2593,0.2628,0.264,0.2647,0.2653,0.2738,0.2751,0.2598,0.2598,0.2598,0,0.2502,0.2517,0.2515,0.2529,0.255,0.2547,0.2604,0.2625,0.2638,0.2651,0.2673,0.2677,0.2635,0.2616,0.2609,0.2602,0.2612,0.2574,0.2578,0.2577,0.2588,0.2595,0.2602,0.2527,0.2527,0.2527,0,0,0.2521,0.2515,0.2545,0.2535,0.2548,0.2589,0.2602,0.2639,0.2651,0.2665,0.2676,0.2668,0.2643,0.264,0.2604,0.2572,0.2585,0.257,0.2574,0.2577,0.2578,0.2589,0.2596,0.2528,0.2528,0.2528,0,0,0.2527,0.2551,0.2588,0.257,0.2593,0.2605,0.2609,0.2652,0.2663,0.2689,0.2687,0.2685,0.2679,0.2643,0.266,0.2618,0.2596,0.2591,0.2664,0.2667,0.267,0.2687,0.2659,0,0,0,0,0,0.2571,0.2543,0.2577,0.2581,0.2592,0.2586,0.2588,0.2637,0.2691,0.269,0.2707,0.2706,0.2651,0.2666,0.2653,0.2668,0.2542,0.2539,0.2537,0.2621,0.2625,0.2628,0,0,0,0,0,0,0.2572,0.2573,0.2578,0.2587,0.2591,0.2586,0.2637,0.2648,0.2693,0.2704,0.2703,0.2704,0.2688,0.267,0.266,0.2674,0.2662,0.2541,0.2539,0.2537,0.2623,0.2626,0.2629,0,0,0,0,0,0.2574,0.2575,0.2586,0.2587,0.2591,0.2647,0.2639,0.2649,0.269,0.2672,0.2677,0.2737,0.2685,0.2679,0.2664,0.268,0.2669,0.2665,0.2539,0.2538,0.2536,0.2624,0,0,0,0,0,0,0.2575,0.2569,0.2587,0.259,0.2621,0.265,0.2656,0.265,0.2655,0.2662,0.2699,0.2706,0.2682,0.2678,0.2673,0.2685,0.2675,0.2671,0.2669,0.2538,0.2537,0.2536,0,0,0,0,0,0,0.2569,0.257,0.2588,0.2628,0.2635,0.2652,0.2657,0.2605,0.2653,0.268,0.2688,0.2702,0.2688,0.2677,0.2673,0.259,0.268,0.2676,0.2673,0.2672,0.2537,0.2536,0,0,0,0,0,0,0.257,0.2571,0.2627,0.2632,0.2639,0.2669,0.2605,0.2609,0.2708,0.2677,0.2718,0.2722,0.2685,0.2683,0.2673,0.2591,0.259,0.268,0.2677,0.2675,0.2674,0,0,0,0,0,0,0,0.2571,0.2555,0.2579,0.2636,0.2642,0.2619,0.2619,0.2619,0.2709,0.2713,0.2717,0.272,0.2701,0.2697,0.2693,0.2591,0,0,0.268,0.2678,0,0,0,0,0,0,0,0,0.2556,0.2556,0.2579,0.258,0.2581,0.2619,0.2619,0.2619,0.271,0.2713,0.2716,0.2719,0.27,0.2697,0.2693,0,0,0,0,0,0,0,0,0,0,0,0,0,0,0,0.2579,0.258,0,0.2619,0.2619,0.2619,0.271,0.2713,0.2715,0.2718,0.2699,0.2696,0.2694,0,0,0,0,0,0,0,0,0,0,0,0,0,0,0,0,0,0,0,0,0,0,0,0,0,0,0,0,0,0,0,0,0,0,0,0,0,0,0,0,0,0,0,0,0,0,0,0,0,0,0,0,0,0,0,0,0,0,0,0,0,0,0,0,0,0,0,0,0]}],[{"header":{"parameterUnit":"kt","parameterCategory":2,"dx":1,"dy":1,"la1":30.253999710083008,"la2":30.299108505249023,"lo1":-89.0895004272461,"lo2":-89.04439544677734,"nx":28,"ny":28,"refTime":"2022-10-19T21:00:00:Z","depth":"2","parameterNumber":3,"parameterNumberName":"V-component_of_CURRENTS"},"data":[0.0011,0.0086,0.0131,0.0338,0.0418,0.0647,0.0814,0.1203,0.1321,0.1517,0.1388,0.1349,0.0557,0.0117,-0.0253,-0.0516,-0.0644,-0.0536,-0.0485,-0.0643,-0.0656,-0.1009,-0.0986,0,0,0,0,0,-0.004,-0.0,0.0075,0.0179,0.0295,0.0297,0.0536,0.0758,0.1121,0.1237,0.1473,0.0951,0.0684,0.0138,-0.0364,-0.0623,-0.0714,-0.0756,-0.0914,-0.0931,-0.0949,-0.0925,-0.0765,-0.0765,-0.0766,-0.0766,0,0,-0.012,-0.0075,-0.0047,0.002,0.0088,0.0243,0.0375,0.0533,0.0758,0.1049,0.1022,0.1055,0.0551,0.009,-0.0204,-0.0583,-0.0616,-0.0896,-0.0911,-0.0927,-0.0893,-0.0803,-0.0729,-0.0729,-0.0729,-0.0729,-0.0729,0,-0.0182,-0.0193,-0.0155,-0.0093,-0.0043,0.0044,0.0116,0.0217,0.0269,0.041,0.0605,0.067,0.0439,0.0157,-0.0234,-0.0449,-0.0945,-0.0936,-0.1029,-0.1203,-0.1119,-0.1157,-0.1166,-0.1114,-0.1116,-0.1118,-0.1119,-0.112,-0.0287,-0.0255,-0.0226,-0.0191,-0.0182,-0.0143,-0.0103,-0.0104,-0.003,0.0065,0.0144,0.0093,0.0135,-0.0133,-0.0487,-0.0769,-0.0956,-0.0988,-0.1123,-0.1157,-0.1192,-0.1198,-0.1203,-0.1144,-0.1141,-0.1138,-0.1136,0,-0.0343,-0.0346,-0.0286,-0.0275,-0.0268,-0.0237,-0.0203,-0.0161,-0.0186,-0.0102,-0.0112,-0.0197,-0.0293,-0.0559,-0.0824,-0.1004,-0.1171,-0.1209,-0.1146,-0.1166,-0.123,-0.1229,-0.1172,-0.1166,-0.1162,-0.1158,-0.1155,0,-0.0422,-0.0382,-0.0382,-0.0354,-0.0305,-0.0334,-0.0297,-0.0329,-0.0339,-0.0287,-0.0454,-0.041,-0.0739,-0.0834,-0.1054,-0.1172,-0.1244,-0.1338,-0.1367,-0.1386,-0.1373,-0.1575,-0.1579,-0.1548,-0.1548,-0.1548,-0.1548,0,-0.0491,-0.0457,-0.0416,-0.041,-0.0403,-0.0404,-0.0414,-0.0474,-0.0466,-0.0542,-0.0522,-0.0704,-0.0755,-0.0952,-0.1144,-0.1208,-0.1301,-0.1425,-0.1396,-0.1385,-0.1433,-0.1423,-0.1549,-0.1549,-0.1549,-0.1549,-0.1549,0,-0.0553,-0.053,-0.0486,-0.0458,-0.0454,-0.0458,-0.0476,-0.0499,-0.0579,-0.0626,-0.0725,-0.0824,-0.0945,-0.1048,-0.1243,-0.1233,-0.1355,-0.1445,-0.1448,-0.135,-0.1406,-0.1372,-0.1309,-0.1479,-0.1478,-0.1478,-0.1478,0,-0.0603,-0.0561,-0.0581,-0.0547,-0.0522,-0.0578,-0.06,-0.0656,-0.0714,-0.0749,-0.0893,-0.0968,-0.1102,-0.115,-0.1241,-0.1366,-0.1418,-0.1408,-0.1547,-0.1549,-0.1406,-0.1345,-0.1351,-0.1312,-0.1475,-0.1476,-0.1476,0,-0.0646,-0.0637,-0.0638,-0.0618,-0.0657,-0.0658,-0.0694,-0.074,-0.0752,-0.0858,-0.0884,-0.1068,-0.1133,-0.1214,-0.1326,-0.1392,-0.1411,-0.1466,-0.1472,-0.1429,-0.1504,-0.1358,-0.1346,-0.1504,-0.1505,-0.1505,-0.1474,0,-0.0681,-0.0674,-0.0666,-0.0679,-0.0695,-0.0694,-0.0753,-0.0781,-0.0844,-0.0908,-0.1004,-0.1134,-0.1255,-0.1313,-0.1395,-0.1465,-0.1471,-0.1546,-0.1583,-0.1565,-0.1551,-0.1552,-0.1566,-0.1568,-0.1569,-0.1571,0,0,-0.0723,-0.0713,-0.075,-0.0742,-0.0755,-0.082,-0.081,-0.0861,-0.0951,-0.0986,-0.1026,-0.1222,-0.1331,-0.144,-0.1455,-0.151,-0.1534,-0.1532,-0.1575,-0.1574,-0.1575,-0.1561,-0.156,-0.1574,-0.1574,-0.1575,-0.1575,0,-0.074,-0.0759,-0.0749,-0.0767,-0.0803,-0.0844,-0.0843,-0.091,-0.0958,-0.1018,-0.1124,-0.1211,-0.1353,-0.1448,-0.1519,-0.1524,-0.1596,-0.157,-0.1515,-0.1586,-0.1584,-0.1582,-0.1567,-0.1565,-0.1579,-0.1579,-0.1579,0,-0.0772,-0.0797,-0.0803,-0.0833,-0.087,-0.088,-0.0947,-0.0973,-0.1,-0.1123,-0.119,-0.1282,-0.1414,-0.1493,-0.1538,-0.1562,-0.1641,-0.1642,-0.1636,-0.1618,-0.1693,-0.169,-0.1688,-0.1718,-0.1718,-0.1718,0,0,-0.0785,-0.079,-0.0839,-0.0843,-0.0852,-0.0926,-0.095,-0.0997,-0.1071,-0.1107,-0.1201,-0.1309,-0.1405,-0.1464,-0.1548,-0.1614,-0.1645,-0.1654,-0.1647,-0.1641,-0.1621,-0.1693,-0.1691,-0.1717,-0.1717,-0.1717,0,0,-0.0806,-0.0854,-0.0878,-0.0881,-0.0917,-0.0997,-0.1008,-0.1056,-0.1132,-0.1152,-0.1275,-0.1307,-0.1387,-0.146,-0.1441,-0.1581,-0.1614,-0.162,-0.1527,-0.152,-0.1514,-0.1466,-0.154,0,0,0,0,0,-0.0855,-0.084,-0.086,-0.0869,-0.0942,-0.0975,-0.0989,-0.1067,-0.111,-0.1112,-0.121,-0.1283,-0.1481,-0.1466,-0.1492,-0.1521,-0.1714,-0.1715,-0.1715,-0.1612,-0.1604,-0.1597,0,0,0,0,0,0,-0.0858,-0.0867,-0.0862,-0.0934,-0.0952,-0.0977,-0.1052,-0.1074,-0.1112,-0.1124,-0.126,-0.1287,-0.1372,-0.1461,-0.1482,-0.1508,-0.1533,-0.1714,-0.1715,-0.1715,-0.1609,-0.1602,-0.1597,0,0,0,0,0,-0.0862,-0.0869,-0.0959,-0.0937,-0.0952,-0.1047,-0.1054,-0.1073,-0.111,-0.1235,-0.1262,-0.1167,-0.1369,-0.1396,-0.1474,-0.1496,-0.1519,-0.1527,-0.1715,-0.1715,-0.1715,-0.1606,0,0,0,0,0,0,-0.0864,-0.0896,-0.0965,-0.0974,-0.0951,-0.1049,-0.1065,-0.1071,-0.1223,-0.1247,-0.1148,-0.1156,-0.1366,-0.1388,-0.1408,-0.1486,-0.1507,-0.1515,-0.152,-0.1715,-0.1715,-0.1716,0,0,0,0,0,0,-0.0893,-0.0903,-0.097,-0.0983,-0.0994,-0.105,-0.1063,-0.1137,-0.1226,-0.113,-0.1139,-0.115,-0.1355,-0.1382,-0.1398,-0.1508,-0.1498,-0.1506,-0.1511,-0.1514,-0.1715,-0.1715,0,0,0,0,0,0,-0.0899,-0.0908,-0.0981,-0.099,-0.1,-0.1105,-0.112,-0.1204,-0.1191,-0.1124,-0.1197,-0.1199,-0.1349,-0.1366,-0.139,-0.1492,-0.1504,-0.1499,-0.1504,-0.1507,-0.151,0,0,0,0,0,0,0,-0.0904,-0.0823,-0.091,-0.0996,-0.1004,-0.1052,-0.1055,-0.1058,-0.1192,-0.1194,-0.1196,-0.1198,-0.1456,-0.1464,-0.1472,-0.148,0,0,-0.1498,-0.1502,0,0,0,0,0,0,0,0,-0.0822,-0.0823,-0.091,-0.0912,-0.0913,-0.1053,-0.1055,-0.1057,-0.1192,-0.1194,-0.1196,-0.1198,-0.1458,-0.1464,-0.1471,0,0,0,0,0,0,0,0,0,0,0,0,0,0,0,-0.091,-0.0912,0,-0.1053,-0.1055,-0.1057,-0.1193,-0.1194,-0.1195,-0.1197,-0.146,-0.1465,-0.1471,0,0,0,0,0,0,0,0,0,0,0,0,0,0,0,0,0,0,0,0,0,0,0,0,0,0,0,0,0,0,0,0,0,0,0,0,0,0,0,0,0,0,0,0,0,0,0,0,0,0,0,0,0,0,0,0,0,0,0,0,0,0,0,0,0,0,0,0,0]}]],[[{"header":{"parameterUnit":"kt","parameterCategory":2,"dx":1,"dy":1,"la1":30.253999710083008,"la2":30.299108505249023,"lo1":-89.0895004272461,"lo2":-89.04439544677734,"nx":28,"ny":28,"refTime":"2022-10-19T21:00:00:Z","depth":"4","parameterNumber":2,"parameterNumberName":"U-component_of_CURRENTS"},"data":[0.0125,0.0182,0.0221,0.0299,0.0362,0.0454,0.0502,0.0548,0.0518,0.0621,0.0537,0.07,0.0574,0.0627,0.0528,0.0532,0.0617,0.0554,0.0556,0.0695,0.07,0.0705,0.0648,0,0,0,0,0,0.017,0.0189,0.0263,0.0361,0.0479,0.0549,0.0626,0.0662,0.0761,0.0715,0.0775,0.0682,0.0636,0.0541,0.0536,0.0542,0.0596,0.0541,0.066,0.0699,0.0704,0.0647,0,0,0,0,0,0,0.0225,0.0246,0.0343,0.0445,0.0561,0.0602,0.0648,0.0689,0.0738,0.0845,0.0767,0.0724,0.074,0.0662,0.0606,0.0621,0.0612,0.0668,0.0675,0.0681,0.063,0.0636,0.0595,0,0,0,0,0,0.0278,0.0341,0.0397,0.052,0.061,0.0683,0.0771,0.079,0.0879,0.0981,0.0902,0.0875,0.0801,0.0707,0.073,0.0664,0.0772,0.0748,0.0751,0.0718,0.0731,0.0731,0.0734,0.0725,0.0726,0.0726,0.0727,0,0.0345,0.0378,0.0519,0.0574,0.0639,0.0738,0.0796,0.0895,0.0923,0.0979,0.0961,0.0952,0.0916,0.0802,0.0766,0.0731,0.0707,0.0762,0.0727,0.074,0.0739,0.074,0.0741,0.0731,0.0731,0.073,0.073,0,0.0373,0.0448,0.0517,0.0635,0.0683,0.0734,0.0858,0.0895,0.0969,0.1008,0.1025,0.1001,0.0929,0.093,0.0869,0.0855,0.079,0.0765,0.0831,0.0831,0.0749,0.0748,0.0738,0.0737,0.0735,0.0734,0.0733,0,0.0426,0.0473,0.0588,0.0616,0.0693,0.0754,0.083,0.0868,0.0931,0.0956,0.0974,0.0942,0.0947,0.0923,0.0869,0.0808,0.0833,0.0754,0.0752,0.0788,0.0788,0.0802,0.0803,0.0788,0.0788,0.0787,0.0787,0,0.0437,0.0526,0.0583,0.061,0.07,0.0747,0.0797,0.0849,0.0881,0.0916,0.0952,0.0921,0.0936,0.0889,0.0847,0.0843,0.081,0.0805,0.0754,0.0753,0.0799,0.0801,0.0786,0.0786,0.0786,0.0786,0.0786,0,0.0466,0.0509,0.0574,0.0652,0.0674,0.0724,0.0798,0.0827,0.0862,0.0883,0.0885,0.0886,0.0865,0.0843,0.081,0.0806,0.0797,0.0779,0.0781,0.0745,0.0744,0.0823,0.0813,0.0813,0.0813,0.0813,0.0813,0,0.0465,0.0522,0.0551,0.0619,0.0657,0.0707,0.074,0.0779,0.0812,0.0849,0.0821,0.0842,0.0812,0.0825,0.0795,0.0782,0.0775,0.0763,0.0793,0.0795,0.0745,0.0722,0.0753,0.0811,0.0811,0.0811,0.0811,0,0.0451,0.0518,0.0531,0.0571,0.0637,0.0666,0.0704,0.0747,0.0784,0.0807,0.0835,0.0807,0.0817,0.0814,0.0802,0.0783,0.0775,0.0787,0.0787,0.0808,0.0779,0.0728,0.0725,0.0755,0.0754,0.0754,0.081,0,0.0472,0.051,0.0524,0.0578,0.0613,0.065,0.0686,0.073,0.0773,0.0794,0.0808,0.0809,0.0829,0.081,0.0808,0.0788,0.0808,0.0795,0.0807,0.0795,0.0824,0.0825,0.082,0.0821,0.0821,0.0822,0,0,0.0467,0.0487,0.0513,0.0545,0.0578,0.0631,0.0667,0.0694,0.0763,0.078,0.0802,0.0825,0.0831,0.0815,0.0811,0.0814,0.0825,0.0825,0.0804,0.0802,0.08,0.0826,0.0827,0.0822,0.0823,0.0823,0.0823,0,0.0455,0.0482,0.0501,0.0532,0.059,0.0619,0.0641,0.0701,0.0736,0.0778,0.0798,0.0811,0.0838,0.0832,0.0828,0.0821,0.0832,0.082,0.0819,0.0808,0.0805,0.0803,0.0828,0.0828,0.0824,0.0824,0.0824,0,0.0455,0.0477,0.0485,0.0527,0.0566,0.06,0.0633,0.0683,0.0714,0.0748,0.0813,0.082,0.0825,0.0831,0.0842,0.0851,0.0848,0.0847,0.0845,0.0854,0.0843,0.084,0.0838,0.0871,0.0871,0.0871,0,0,0.0457,0.0471,0.0508,0.0527,0.0548,0.0605,0.0637,0.0678,0.0722,0.0755,0.0795,0.0824,0.0824,0.0844,0.0851,0.0859,0.087,0.0851,0.0849,0.0847,0.0855,0.0844,0.0841,0.0871,0.0871,0.0871,0,0,0.0457,0.0486,0.0511,0.053,0.057,0.0612,0.0649,0.0689,0.0748,0.0771,0.08,0.081,0.0834,0.0848,0.0848,0.0848,0.0859,0.086,0.0836,0.0833,0.0831,0.0837,0.0853,0,0,0,0,0,0.0465,0.0472,0.0494,0.0502,0.0558,0.059,0.0603,0.0671,0.0713,0.0741,0.0786,0.0795,0.0852,0.0852,0.0855,0.0841,0.0871,0.0871,0.0871,0.0841,0.0838,0.0836,0,0,0,0,0,0,0.0468,0.0475,0.0494,0.0528,0.0542,0.059,0.0629,0.0647,0.0712,0.0725,0.0785,0.0794,0.0805,0.0851,0.0854,0.084,0.0852,0.0871,0.0871,0.0871,0.084,0.0838,0.0836,0,0,0,0,0,0.0471,0.0476,0.0547,0.053,0.0542,0.0627,0.063,0.0647,0.0713,0.0735,0.075,0.077,0.0803,0.081,0.0853,0.0838,0.085,0.0851,0.0871,0.0871,0.0871,0.0839,0,0,0,0,0,0,0.0473,0.0496,0.0551,0.0558,0.0549,0.0629,0.0642,0.0646,0.0721,0.0736,0.0715,0.0723,0.0801,0.0806,0.0811,0.0837,0.0848,0.0849,0.085,0.0871,0.0871,0.0871,0,0,0,0,0,0,0.0493,0.05,0.0555,0.0575,0.0585,0.063,0.0642,0.0643,0.072,0.0697,0.0706,0.0717,0.0787,0.0804,0.0808,0.0808,0.0847,0.0848,0.0849,0.0849,0.0871,0.0871,0,0,0,0,0,0,0.0498,0.0504,0.0574,0.0581,0.059,0.0676,0.0632,0.0683,0.0749,0.0691,0.0756,0.0759,0.0782,0.0788,0.0805,0.0803,0.0807,0.0847,0.0848,0.0848,0.0849,0,0,0,0,0,0,0,0.0502,0.0437,0.0509,0.0586,0.0595,0.0624,0.0626,0.0628,0.075,0.0753,0.0755,0.0758,0.0842,0.0843,0.0844,0.0799,0,0,0.0847,0.0848,0,0,0,0,0,0,0,0,0.0437,0.0437,0.0509,0.051,0.0512,0.0624,0.0626,0.0627,0.0751,0.0753,0.0755,0.0757,0.0842,0.0843,0.0844,0,0,0,0,0,0,0,0,0,0,0,0,0,0,0,0.0509,0.051,0,0.0624,0.0626,0.0627,0.0751,0.0753,0.0754,0.0756,0.0842,0.0843,0.0844,0,0,0,0,0,0,0,0,0,0,0,0,0,0,0,0,0,0,0,0,0,0,0,0,0,0,0,0,0,0,0,0,0,0,0,0,0,0,0,0,0,0,0,0,0,0,0,0,0,0,0,0,0,0,0,0,0,0,0,0,0,0,0,0,0,0,0,0,0]}],[{"header":{"parameterUnit":"kt","parameterCategory":2,"dx":1,"dy":1,"la1":30.253999710083008,"la2":30.299108505249023,"lo1":-89.0895004272461,"lo2":-89.04439544677734,"nx":28,"ny":28,"refTime":"2022-10-19T21:00:00:Z","depth":"4","parameterNumber":3,"parameterNumberName":"V-component_of_CURRENTS"},"data":[0.0086,0.0113,0.0136,0.0173,0.0182,0.0218,0.022,0.0207,0.0198,0.015,0.0074,0.0009,-0.013,-0.0086,-0.0287,-0.0314,-0.0405,-0.0486,-0.0488,-0.0636,-0.064,-0.0644,-0.0668,0,0,0,0,0,0.009,0.0106,0.0132,0.0142,0.0177,0.0172,0.0196,0.0184,0.0156,0.0148,0.0084,0.003,-0.0133,-0.0214,-0.0283,-0.0326,-0.0471,-0.0412,-0.0535,-0.0639,-0.0643,-0.0665,0,0,0,0,0,0,0.0097,0.0106,0.0115,0.0111,0.0128,0.0149,0.0126,0.0125,0.0109,0.0041,0.0046,-0.0087,-0.0167,-0.0303,-0.0342,-0.0418,-0.047,-0.0524,-0.0534,-0.0539,-0.0539,-0.0512,-0.0412,0,0,0,0,0,0.0099,0.0085,0.0084,0.0092,0.007,0.0075,0.0048,0.0053,0.0003,-0.0037,-0.0078,-0.0185,-0.0236,-0.0367,-0.042,-0.048,-0.0627,-0.0607,-0.0611,-0.0697,-0.0689,-0.0694,-0.07,-0.0659,-0.066,-0.066,-0.066,0,0.0093,0.0088,0.006,0.0058,0.0015,-0.0036,-0.0054,-0.0129,-0.0121,-0.0192,-0.0168,-0.0256,-0.033,-0.0398,-0.0505,-0.0584,-0.0601,-0.0616,-0.0707,-0.0696,-0.0699,-0.0704,-0.0708,-0.0664,-0.0663,-0.0663,-0.0663,0,0.0095,0.007,0.0052,-0.0004,-0.0029,-0.0067,-0.0133,-0.0155,-0.0243,-0.0261,-0.029,-0.0405,-0.0458,-0.0545,-0.0606,-0.066,-0.0686,-0.0676,-0.0692,-0.0694,-0.0713,-0.0716,-0.0669,-0.0668,-0.0667,-0.0666,-0.0665,0,0.0082,0.0057,0.0008,-0.0003,-0.0039,-0.0104,-0.0163,-0.023,-0.0305,-0.0319,-0.0458,-0.0483,-0.0621,-0.0647,-0.0703,-0.0723,-0.0726,-0.0763,-0.0762,-0.0813,-0.0815,-0.0813,-0.0816,-0.0795,-0.0795,-0.0796,-0.0796,0,0.006,0.0024,0.0005,-0.0011,-0.0074,-0.0121,-0.0174,-0.0273,-0.0303,-0.0427,-0.0471,-0.0575,-0.063,-0.0677,-0.0738,-0.0772,-0.076,-0.0804,-0.0778,-0.0776,-0.0817,-0.0819,-0.0797,-0.0797,-0.0797,-0.0797,-0.0797,0,0.0023,0.0014,-0.0008,-0.0061,-0.008,-0.0122,-0.0213,-0.0258,-0.0367,-0.0444,-0.0543,-0.063,-0.0688,-0.074,-0.0786,-0.0803,-0.0819,-0.0837,-0.0835,-0.0814,-0.0823,-0.0818,-0.0816,-0.0817,-0.0817,-0.0818,-0.0818,0,0.0009,-0.0005,-0.0038,-0.0077,-0.0097,-0.0182,-0.0215,-0.0299,-0.0397,-0.0486,-0.0574,-0.0661,-0.0725,-0.0788,-0.0808,-0.0852,-0.0843,-0.086,-0.0853,-0.0852,-0.0817,-0.081,-0.0874,-0.0824,-0.0823,-0.0822,-0.0822,0,-0.0002,-0.0054,-0.0066,-0.0094,-0.0173,-0.02,-0.0257,-0.0327,-0.039,-0.0518,-0.0586,-0.0677,-0.0762,-0.0787,-0.0841,-0.0848,-0.0849,-0.088,-0.088,-0.0844,-0.0843,-0.0819,-0.0813,-0.0876,-0.0875,-0.0875,-0.0826,0,-0.0028,-0.0065,-0.0075,-0.0129,-0.0165,-0.0209,-0.0278,-0.0357,-0.047,-0.0534,-0.0644,-0.0721,-0.0804,-0.0832,-0.0859,-0.0882,-0.0885,-0.09,-0.0883,-0.0892,-0.0871,-0.0868,-0.0906,-0.0907,-0.0907,-0.0907,0,0,-0.0044,-0.0065,-0.0118,-0.0136,-0.017,-0.028,-0.0306,-0.0362,-0.0491,-0.0538,-0.061,-0.0752,-0.0804,-0.0832,-0.0858,-0.0879,-0.0881,-0.0884,-0.0897,-0.0895,-0.0894,-0.0874,-0.0871,-0.0907,-0.0907,-0.0907,-0.0907,0,-0.0037,-0.009,-0.0106,-0.0141,-0.0227,-0.0266,-0.0304,-0.0403,-0.0476,-0.0563,-0.0638,-0.0723,-0.0806,-0.083,-0.0848,-0.0878,-0.0887,-0.0913,-0.0898,-0.0898,-0.0897,-0.0895,-0.0875,-0.0872,-0.0907,-0.0907,-0.0907,0,-0.0049,-0.0083,-0.0103,-0.0158,-0.0214,-0.0242,-0.0319,-0.0398,-0.0442,-0.0526,-0.0637,-0.0706,-0.0748,-0.08,-0.0839,-0.0833,-0.0874,-0.0883,-0.0883,-0.0873,-0.0873,-0.0872,-0.0871,-0.0876,-0.0876,-0.0876,0,0,-0.0049,-0.0074,-0.0131,-0.0162,-0.0189,-0.0277,-0.0321,-0.0395,-0.0473,-0.0529,-0.0611,-0.0691,-0.0734,-0.0776,-0.082,-0.0853,-0.0844,-0.0877,-0.0879,-0.088,-0.0871,-0.087,-0.087,-0.0875,-0.0875,-0.0875,0,0,-0.0052,-0.0107,-0.0154,-0.0181,-0.0237,-0.0295,-0.0339,-0.0412,-0.051,-0.0564,-0.0627,-0.0651,-0.074,-0.0758,-0.074,-0.0821,-0.0818,-0.0822,-0.0803,-0.0805,-0.0807,-0.0785,-0.0762,0,0,0,0,0,-0.0081,-0.0085,-0.0127,-0.0141,-0.0223,-0.0259,-0.0274,-0.038,-0.0463,-0.0496,-0.0592,-0.062,-0.0763,-0.0747,-0.0757,-0.0781,-0.0861,-0.0864,-0.0866,-0.0851,-0.0853,-0.0855,0,0,0,0,0,0,-0.0087,-0.0099,-0.0127,-0.0177,-0.0198,-0.0259,-0.0334,-0.0361,-0.0463,-0.0485,-0.0599,-0.0619,-0.0647,-0.0744,-0.0753,-0.0775,-0.0759,-0.0862,-0.0864,-0.0866,-0.0852,-0.0853,-0.0855,0,0,0,0,0,-0.0091,-0.0102,-0.0212,-0.0179,-0.0197,-0.0324,-0.0338,-0.0362,-0.0465,-0.0517,-0.0544,-0.0556,-0.0642,-0.0659,-0.0749,-0.0771,-0.0754,-0.0757,-0.0864,-0.0865,-0.0867,-0.0852,0,0,0,0,0,0,-0.0095,-0.0119,-0.0218,-0.0228,-0.022,-0.0327,-0.0348,-0.0362,-0.0495,-0.0521,-0.0467,-0.0481,-0.0637,-0.0651,-0.0663,-0.0768,-0.0749,-0.0752,-0.0754,-0.0865,-0.0866,-0.0867,0,0,0,0,0,0,-0.0114,-0.0125,-0.0223,-0.0269,-0.0285,-0.0329,-0.0347,-0.0363,-0.0496,-0.0439,-0.0454,-0.0472,-0.0632,-0.0645,-0.0655,-0.0674,-0.0745,-0.0748,-0.075,-0.0752,-0.0866,-0.0867,0,0,0,0,0,0,-0.0121,-0.0131,-0.0267,-0.0279,-0.0293,-0.0404,-0.0346,-0.0434,-0.0514,-0.0431,-0.0527,-0.0532,-0.0624,-0.0636,-0.0649,-0.0662,-0.0671,-0.0746,-0.0748,-0.0749,-0.075,0,0,0,0,0,0,0,-0.0126,-0.0036,-0.0165,-0.0287,-0.03,-0.0315,-0.0317,-0.0319,-0.0515,-0.052,-0.0525,-0.053,-0.0729,-0.0732,-0.0735,-0.0652,0,0,-0.0745,-0.0747,0,0,0,0,0,0,0,0,-0.0035,-0.0036,-0.0166,-0.0168,-0.017,-0.0315,-0.0317,-0.0319,-0.0516,-0.052,-0.0524,-0.0528,-0.0729,-0.0732,-0.0735,0,0,0,0,0,0,0,0,0,0,0,0,0,0,0,-0.0166,-0.0168,0,-0.0315,-0.0317,-0.0318,-0.0516,-0.052,-0.0523,-0.0526,-0.073,-0.0732,-0.0735,0,0,0,0,0,0,0,0,0,0,0,0,0,0,0,0,0,0,0,0,0,0,0,0,0,0,0,0,0,0,0,0,0,0,0,0,0,0,0,0,0,0,0,0,0,0,0,0,0,0,0,0,0,0,0,0,0,0,0,0,0,0,0,0,0,0,0,0,0]}]]]